Weather History for State College, PA

Change the Weather History Date:

Tuesday, September 18, 2012

  Actual Average Record
Temperature  
Mean Temperature 62 °F -  
Max Temperature 69 °F 72 °F 87 °F (1972)
Min Temperature 54 °F 52 °F 33 °F (1937)
Degree Days  
Heating Degree Days 3    
Growing Degree Days 12 (Base 50)    
Moisture  
Dew Point 59 °F    
Average Humidity 86    
Maximum Humidity 100    
Minimum Humidity 76    
Precipitation  
Precipitation 0.01 in - - ()
Sea Level Pressure  
Sea Level Pressure 29.76 in    
Wind  
Wind Speed 6 mph (SW)    
Max Wind Speed 16 mph    
Max Gust Speed 23 mph    
Visibility 8 miles    
Events Rain    
Averages and records for this station are not official NWS values.
T = Trace of Precipitation, MM = Missing Value Source: NWS Daily Summary

Daily Weather History Graph

Daily Weather History Graph

Search for Another Location

Airport:

Trip Planner

Search our weather history database for the weather conditions in past years. The results will help you decide how hot, cold, wet, or windy it might be!

Date:

Astronomy

Sep. 18, 2012 Rise Set
Actual Time 6:55 AM EDT 7:14 PM EDT
Civil Twilight 6:27 AM EDT 7:41 PM EDT
Nautical Twilight 5:55 AM EDT 8:14 PM EDT
Astronomical Twilight 5:22 AM EDT 8:46 PM EDT
Moon 9:54 AM EDT (9/18) 8:34 PM EDT (9/18)
Length of Visible Light 13h 13m
Length of Day
12h 19m
Waxing Crescent, 9% of the Moon is Illuminated
Sep 18
Waxing Crescent
Sep 22
First Quarter
Sep 29
Full
Oct 8
Last Quarter
Oct 15
New

Hourly Weather History & Observations

Time (EDT) Temp. Dew Point Humidity Pressure Visibility Wind Dir Wind Speed Gust Speed Precip Events Conditions
12:15 AM 64.9 °F 58.1 °F 78% 29.93 in 10.0 mi SSE 5.8 mph - N/A   Overcast
12:35 AM 64.9 °F 58.3 °F 79% 29.93 in 10.0 mi South 10.4 mph - N/A   Overcast
12:55 AM 64.9 °F 58.5 °F 79% 29.92 in 10.0 mi South 6.9 mph - N/A   Overcast
1:15 AM 64.2 °F 59.2 °F 84% 29.92 in 10.0 mi South 8.1 mph - N/A   Overcast
1:35 AM 64.0 °F 59.5 °F 85% 29.92 in 10.0 mi South 5.8 mph - N/A   Light Drizzle
1:55 AM 64.0 °F 59.9 °F 86% 29.91 in 10.0 mi South 5.8 mph - N/A   Drizzle
2:15 AM 63.9 °F 60.3 °F 88% 29.89 in 10.0 mi South 5.8 mph - N/A Rain Light Rain
2:55 AM 63.3 °F 60.3 °F 90% 29.86 in 10.0 mi SSW 3.5 mph - N/A   Light Drizzle
3:15 AM 63.5 °F 60.4 °F 90% 29.85 in 10.0 mi South 4.6 mph - 0.01 in   Drizzle
3:35 AM 63.1 °F 60.8 °F 92% 29.84 in 7.0 mi Calm Calm - 0.01 in Rain Rain
3:55 AM 62.8 °F 60.8 °F 93% 29.83 in 5.0 mi Calm Calm - N/A Rain Heavy Rain
4:15 AM 62.6 °F 60.8 °F 94% 29.81 in 5.0 mi Calm Calm - N/A Rain Light Rain
4:35 AM 62.2 °F 60.8 °F 95% 29.80 in 1.8 mi Calm Calm - N/A Rain Heavy Rain
5:15 AM 62.2 °F 61.0 °F 96% 29.78 in 3.0 mi Calm Calm - N/A Rain Rain
5:35 AM 62.2 °F 61.0 °F 96% 29.76 in 5.0 mi Calm Calm - N/A Rain Rain
6:53 AM 64.4 °F 60.8 °F 88% 29.71 in 4.0 mi Calm Calm - N/A Rain Rain
7:15 AM 64.4 °F 62.6 °F 94% 29.69 in 3.0 mi Calm Calm - N/A Rain Heavy Rain
7:53 AM 62.6 °F 62.6 °F 100% 29.68 in 3.0 mi Calm Calm - N/A Rain Rain
8:06 AM 64.4 °F 62.6 °F 94% 29.67 in 4.0 mi SSE 3.5 mph - N/A Rain Rain
8:53 AM 66.2 °F 62.6 °F 88% 29.64 in 5.0 mi South 8.1 mph - N/A Rain Light Rain
9:53 AM 66.2 °F 64.4 °F 94% 29.59 in 5.0 mi South 6.9 mph - N/A Rain Light Rain
10:53 AM 68.0 °F 64.4 °F 88% 29.57 in 7.0 mi South 16.1 mph 23.0 mph N/A Rain Light Rain
11:53 AM 69.8 °F 66.2 °F 88% 29.56 in 5.0 mi SSW 10.4 mph 19.6 mph N/A Rain Light Rain
12:53 PM 66.2 °F 62.6 °F 88% 29.59 in 7.0 mi SW 11.5 mph - N/A   Overcast
1:53 PM 68.0 °F 62.6 °F 83% 29.59 in 10.0 mi WSW 11.5 mph - N/A   Mostly Cloudy
2:53 PM 68.0 °F 60.8 °F 78% 29.59 in 10.0 mi West 11.5 mph - N/A   Mostly Cloudy
3:53 PM 68.0 °F 60.8 °F 78% 29.61 in 10.0 mi SW 8.1 mph - N/A   Mostly Cloudy
4:53 PM 66.2 °F 60.8 °F 83% 29.61 in 10.0 mi SW 5.8 mph - N/A   Mostly Cloudy
5:53 PM 66.2 °F 60.8 °F 83% 29.62 in 10.0 mi SW 5.8 mph - N/A   Scattered Clouds
6:53 PM 66.2 °F 60.8 °F 83% 29.66 in 3.0 mi WSW 13.8 mph 19.6 mph N/A Rain Rain
8:53 PM 59.0 °F 53.6 °F 82% 29.76 in 10.0 mi West 11.5 mph - N/A   Overcast
9:15 PM 59.0 °F 52.9 °F 80% 29.78 in 10.0 mi West 9.2 mph - N/A   Overcast
9:35 PM 59.0 °F 51.8 °F 77% 29.80 in 10.0 mi WNW 10.4 mph 16.1 mph N/A   Overcast
9:55 PM 58.3 °F 50.7 °F 76% 29.81 in 10.0 mi WNW 12.7 mph 21.9 mph N/A   Overcast
10:15 PM 57.7 °F 50.5 °F 77% 29.82 in 10.0 mi West 4.6 mph 17.3 mph N/A   Mostly Cloudy
10:35 PM 57.2 °F 50.0 °F 77% 29.83 in 10.0 mi West 11.5 mph 16.1 mph N/A   Mostly Cloudy
10:55 PM 56.3 °F 49.1 °F 77% 29.83 in 10.0 mi WNW 10.4 mph - N/A   Scattered Clouds
11:35 PM 55.4 °F 48.9 °F 79% 29.85 in 10.0 mi West 10.4 mph - N/A   Clear
11:55 PM 54.5 °F 48.6 °F 80% 29.86 in 10.0 mi West 8.1 mph - N/A   Clear